Airfield :
LOGIN :

Register | Disclaimer

   EN    FR    IT 

 










Legend :    VFR   Marginal VFR   IFR   Intensive IFR   Very Intensive IFR
Visi :
Ceiling :
>= 8 km
>= 3000ft
5 to 8 km
1000 to 3000 ft
1500m to 5 km
500 to 1000 ft
800 to 1500m
200 to 500 ft
< 800m
< 200 ft
Symbols :   Thunderstorms  Fog  Heavy snow  Heavy precipitations  Wind > 20 kt
SIGMETs :     Misc.  Thunderstorms  Icing  Turbulence  Mountain Waves  Volcanic Ashes







- Airport Elevation : 863 ft
- IATA code : ZAZ


LEZG - Zaragoza Aragon

CURRENT METAR :
  • 141700Z 30023KT CAVOK 26/12 Q1017

EXPIRED METARs :
  • 141630Z 30023G33KT CAVOK 27/11 Q1018
  • 141600Z 31024KT 260V330 9999 FEW050 27/12 Q1018
  • 141530Z 31023G33KT 9999 FEW050 27/12 Q1018
  • 141500Z 31022KT 280V340 9999 FEW050 27/12 Q1018
  • 141430Z 32020KT 280V350 9999 FEW050 27/12 Q1018

TAF TAF LEZG
Valid from the 14 at 12:00 until the 15 at 12:00 UTC


141100Z 1412/1512 33015KT 9999 FEW050 TX31/1414Z TN17/1505Z
PROB40
TEMPO 1412/1418 32020G30KT
BECMG 1502/1504 30010KT
No reported NOTAMs for that airfield.



MET'MAP, your aeronautical weather chart ! - Copyright ORBIFLY December 2007 - Disclaimer

ORBIFLY MET'MAP TEAM :

Programming & Development : Alexandra Zaïnal
Concept & Development : Baudouin d'Aumeries
Co-Development & Prog : Marc-Olivier Méhu
Technical & hardware support : Manuel Goepfert

Contact : metmap@orbifly.com




SOURCES & CREDITS :

   NOAA